| time (UTC) | temp F | wind direction | speed knots | gust knots | rain 1hr in | rain 24hr in | rain mn in | humidity % | barometer mb |
| 20260906140535 | 85 | 291 | 0.9 | 4.3 | 0.00 | 0.00 | 0.00 | 79 | 1013.2 |
| 20260906140054 | 84 | 295 | 0.9 | 4.3 | 0.00 | 0.00 | 0.00 | 80 | 1013.3 |
| 20260906135532 | 84 | 329 | 1.7 | 3.5 | 0.00 | 0.00 | 0.00 | 81 | 1013.4 |
| 20260906135033 | 83 | 0 | 0.0 | 1.7 | 0.00 | 0.00 | 0.00 | 82 | 1013.2 |
| 20260906134609 | 83 | 0 | 0.0 | 4.3 | 0.00 | 0.00 | 0.00 | 83 | 1013.4 |
| 20260906134035 | 82 | 355 | 1.7 | 4.3 | 0.00 | 0.00 | 0.00 | 84 | 1013.4 |
| 20260906133537 | 82 | 10 | 0.9 | 3.5 | 0.00 | 0.00 | 0.00 | 85 | 1013.3 |
| 20260906133053 | 82 | 0 | 0.9 | 4.3 | 0.00 | 0.00 | 0.00 | 85 | 1013.2 |
| 20260906132536 | 82 | 296 | 0.9 | 4.3 | 0.00 | 0.00 | 0.00 | 86 | 1013.4 |
| 20260906132036 | 81 | 352 | 1.7 | 4.3 | 0.00 | 0.00 | 0.00 | 86 | 1013.5 |
| 20260906131546 | 81 | 327 | 1.7 | 4.3 | 0.00 | 0.00 | 0.00 | 86 | 1013.5 |
| 20260906131035 | 81 | 355 | 1.7 | 4.3 | 0.00 | 0.00 | 0.00 | 86 | 1013.4 |
| 20260906130535 | 81 | 0 | 0.9 | 4.3 | 0.00 | 0.00 | 0.00 | 87 | 1013.5 |
| 20260906130054 | 81 | 346 | 0.9 | 4.3 | 0.00 | 0.00 | 0.00 | 87 | 1013.5 |
| 20260906125535 | 81 | 329 | 0.9 | 4.3 | 0.00 | 0.00 | 0.00 | 87 | 1013.4 |
| 20260906125034 | 81 | 352 | 0.9 | 4.3 | 0.00 | 0.00 | 0.00 | 87 | 1013.4 |
| 20260906124550 | 80 | 338 | 1.7 | 4.3 | 0.00 | 0.00 | 0.00 | 87 | 1013.4 |
| 20260906124035 | 80 | 346 | 1.7 | 4.3 | 0.00 | 0.00 | 0.00 | 87 | 1013.2 |
| 20260906123531 | 80 | 360 | 0.9 | 4.3 | 0.00 | 0.00 | 0.00 | 87 | 1013.2 |
| 20260906123055 | 80 | 42 | 0.9 | 4.3 | 0.00 | 0.00 | 0.00 | 87 | 1013.2 |
| 20260906122535 | 80 | 9 | 1.7 | 4.3 | 0.00 | 0.00 | 0.00 | 87 | 1013.2 |
| 20260906122033 | 80 | 344 | 1.7 | 5.2 | 0.00 | 0.00 | 0.00 | 87 | 1013.1 |
| 20260906121545 | 80 | 343 | 1.7 | 5.2 | 0.00 | 0.00 | 0.00 | 87 | 1013.0 |
| 20260906121035 | 80 | 355 | 2.6 | 5.2 | 0.00 | 0.00 | 0.00 | 87 | 1013.1 |
| 20260906120537 | 80 | 337 | 2.6 | 5.2 | 0.00 | 0.00 | 0.00 | 87 | 1013.2 |
| 20260906115535 | 80 | 350 | 0.9 | 3.5 | 0.00 | 0.00 | 0.00 | 87 | 1013.0 |
| 20260906115038 | 80 | 0 | 1.7 | 3.5 | 0.00 | 0.00 | 0.00 | 87 | 1012.9 |
| 20260906114549 | 80 | 355 | 0.9 | 3.5 | 0.00 | 0.00 | 0.00 | 87 | 1012.8 |
| 20260906114034 | 80 | 22 | 0.9 | 3.5 | 0.00 | 0.00 | 0.00 | 87 | 1012.7 |
| 20260906113536 | 80 | 25 | 1.7 | 4.3 | 0.00 | 0.00 | 0.00 | 87 | 1012.5 |
| 20260906113047 | 80 | 351 | 1.7 | 5.2 | 0.00 | 0.00 | 0.00 | 87 | 1012.3 |
| 20260906112536 | 80 | 350 | 1.7 | 5.2 | 0.00 | 0.00 | 0.00 | 87 | 1012.3 |
| 20260906112032 | 80 | 49 | 2.6 | 5.2 | 0.00 | 0.00 | 0.00 | 87 | 1012.3 |
| 20260906111558 | 80 | 12 | 2.6 | 7.8 | 0.00 | 0.00 | 0.00 | 87 | 1012.2 |
| 20260906111035 | 80 | 14 | 2.6 | 7.8 | 0.00 | 0.00 | 0.00 | 87 | 1012.3 |
| 20260906110532 | 80 | 5 | 2.6 | 5.2 | 0.00 | 0.00 | 0.00 | 87 | 1012.3 |
| 20260906110056 | 80 | 346 | 1.7 | 6.1 | 0.00 | 0.00 | 0.00 | 87 | 1012.3 |
| 20260906105535 | 80 | 348 | 2.6 | 6.1 | 0.00 | 0.00 | 0.00 | 87 | 1012.3 |
| 20260906105032 | 80 | 351 | 1.7 | 5.2 | 0.00 | 0.00 | 0.00 | 87 | 1012.3 |
| 20260906104551 | 80 | 328 | 1.7 | 5.2 | 0.00 | 0.00 | 0.00 | 87 | 1012.2 |
| 20260906104035 | 80 | 9 | 2.6 | 6.1 | 0.00 | 0.00 | 0.00 | 86 | 1012.3 |
| 20260906103534 | 80 | 38 | 2.6 | 6.1 | 0.00 | 0.00 | 0.00 | 86 | 1012.2 |
| 20260906103101 | 80 | 355 | 1.7 | 4.3 | 0.00 | 0.00 | 0.00 | 86 | 1012.2 |
| 20260906102535 | 80 | 16 | 1.7 | 4.3 | 0.00 | 0.00 | 0.00 | 86 | 1012.1 |
| 20260906102034 | 80 | 349 | 1.7 | 4.3 | 0.00 | 0.00 | 0.00 | 86 | 1012.1 |
| 20260906101554 | 80 | 342 | 0.9 | 4.3 | 0.00 | 0.00 | 0.00 | 86 | 1012.1 |
| 20260906101034 | 80 | 342 | 1.7 | 4.3 | 0.00 | 0.00 | 0.00 | 86 | 1012.1 |
| 20260906100535 | 80 | 360 | 2.6 | 5.2 | 0.00 | 0.00 | 0.00 | 86 | 1012.1 |
| 20260906100056 | 80 | 351 | 1.7 | 7.0 | 0.00 | 0.00 | 0.00 | 86 | 1012.0 |
| 20260906095534 | 80 | 5 | 2.6 | 7.0 | 0.00 | 0.00 | 0.00 | 86 | 1012.0 |
| 20260906095034 | 80 | 349 | 2.6 | 6.1 | 0.00 | 0.00 | 0.00 | 86 | 1012.0 |
| 20260906094556 | 80 | 360 | 2.6 | 7.0 | 0.00 | 0.00 | 0.00 | 85 | 1011.9 |
| 20260906094033 | 81 | 5 | 2.6 | 7.0 | 0.00 | 0.00 | 0.00 | 85 | 1011.9 |
| 20260906093534 | 81 | 355 | 2.6 | 5.2 | 0.00 | 0.00 | 0.00 | 85 | 1011.9 |
| 20260906093100 | 81 | 352 | 1.7 | 5.2 | 0.00 | 0.00 | 0.00 | 85 | 1011.7 |
| 20260906092536 | 81 | 339 | 2.6 | 7.0 | 0.00 | 0.00 | 0.00 | 85 | 1011.8 |
| 20260906092035 | 81 | 338 | 2.6 | 7.0 | 0.00 | 0.00 | 0.00 | 85 | 1011.7 |
| 20260906091555 | 81 | 339 | 2.6 | 7.0 | 0.00 | 0.00 | 0.00 | 85 | 1011.7 |
| 20260906091034 | 81 | 338 | 0.9 | 5.2 | 0.00 | 0.00 | 0.00 | 85 | 1011.6 |
| 20260906090533 | 81 | 327 | 1.7 | 5.2 | 0.00 | 0.00 | 0.00 | 85 | 1011.6 |
| 20260906090111 | 81 | 355 | 2.6 | 5.2 | 0.00 | 0.00 | 0.00 | 85 | 1011.6 |
| 20260906085534 | 81 | 321 | 1.7 | 6.1 | 0.00 | 0.00 | 0.00 | 85 | 1011.5 |
| 20260906085034 | 81 | 333 | 2.6 | 6.1 | 0.00 | 0.00 | 0.00 | 85 | 1011.4 |
| 20260906084549 | 81 | 340 | 1.7 | 4.3 | 0.00 | 0.00 | 0.00 | 84 | 1011.4 |
| 20260906084034 | 81 | 347 | 1.7 | 5.2 | 0.00 | 0.00 | 0.00 | 84 | 1011.4 |
| 20260906083534 | 81 | 325 | 1.7 | 5.2 | 0.00 | 0.00 | 0.00 | 84 | 1011.5 |
| 20260906083046 | 81 | 347 | 2.6 | 5.2 | 0.00 | 0.00 | 0.00 | 84 | 1011.5 |
| 20260906082534 | 81 | 336 | 2.6 | 4.3 | 0.00 | 0.00 | 0.00 | 84 | 1011.6 |
| 20260906082034 | 81 | 328 | 2.6 | 4.3 | 0.00 | 0.00 | 0.00 | 84 | 1011.5 |
| 20260906081552 | 81 | 306 | 1.7 | 4.3 | 0.00 | 0.00 | 0.00 | 84 | 1011.5 |
| 20260906081034 | 81 | 310 | 1.7 | 5.2 | 0.00 | 0.00 | 0.00 | 84 | 1011.4 |
| 20260906080532 | 81 | 337 | 1.7 | 5.2 | 0.00 | 0.00 | 0.00 | 84 | 1011.4 |
| 20260906080106 | 81 | 348 | 1.7 | 4.3 | 0.00 | 0.00 | 0.00 | 84 | 1011.4 |
| 20260906075534 | 81 | 340 | 1.7 | 4.3 | 0.00 | 0.00 | 0.00 | 84 | 1011.4 |
| 20260906075034 | 81 | 340 | 1.7 | 5.2 | 0.00 | 0.00 | 0.00 | 84 | 1011.3 |
| 20260906074603 | 81 | 321 | 1.7 | 5.2 | 0.00 | 0.00 | 0.00 | 84 | 1011.3 |
| 20260906074034 | 82 | 327 | 1.7 | 5.2 | 0.00 | 0.00 | 0.00 | 83 | 1011.3 |
| 20260906073534 | 82 | 333 | 1.7 | 5.2 | 0.00 | 0.00 | 0.00 | 83 | 1011.3 |
| 20260906073103 | 82 | 330 | 1.7 | 4.3 | 0.00 | 0.00 | 0.00 | 83 | 1011.4 |
| 20260906072535 | 82 | 321 | 1.7 | 7.0 | 0.00 | 0.00 | 0.00 | 83 | 1011.4 |
| 20260906072034 | 82 | 315 | 2.6 | 7.0 | 0.00 | 0.00 | 0.00 | 83 | 1011.4 |
| 20260906071546 | 82 | 24 | 2.6 | 5.2 | 0.00 | 0.00 | 0.00 | 83 | 1011.4 |
| 20260906071032 | 82 | 304 | 1.7 | 3.5 | 0.00 | 0.00 | 0.00 | 83 | 1011.4 |
| 20260906070532 | 82 | 319 | 1.7 | 7.0 | 0.00 | 0.00 | 0.00 | 83 | 1011.4 |
| 20260906070054 | 82 | 330 | 1.7 | 7.0 | 0.00 | 0.00 | 0.00 | 82 | 1011.5 |
| 20260906065537 | 83 | 332 | 1.7 | 7.8 | 0.00 | 0.00 | 0.00 | 82 | 1011.5 |
| 20260906065031 | 83 | 340 | 1.7 | 7.8 | 0.00 | 0.00 | 0.00 | 82 | 1011.3 |
| 20260906064549 | 83 | 327 | 2.6 | 7.0 | 0.00 | 0.00 | 0.00 | 82 | 1011.3 |
| 20260906064034 | 83 | 329 | 2.6 | 7.0 | 0.00 | 0.00 | 0.00 | 82 | 1011.4 |
| 20260906063535 | 83 | 307 | 3.5 | 7.0 | 0.00 | 0.00 | 0.00 | 82 | 1011.4 |
| 20260906063057 | 83 | 284 | 4.3 | 8.7 | 0.00 | 0.00 | 0.00 | 82 | 1011.3 |
| 20260906062534 | 83 | 297 | 4.3 | 10.4 | 0.00 | 0.00 | 0.00 | 82 | 1011.4 |
| 20260906062033 | 83 | 282 | 6.1 | 10.4 | 0.00 | 0.00 | 0.00 | 82 | 1011.4 |
| 20260906061556 | 83 | 288 | 6.1 | 9.6 | 0.00 | 0.00 | 0.00 | 82 | 1011.4 |
| 20260906061032 | 83 | 273 | 7.0 | 8.7 | 0.00 | 0.00 | 0.00 | 82 | 1011.4 |
| 20260906060532 | 83 | 282 | 4.3 | 9.6 | 0.00 | 0.00 | 0.00 | 82 | 1011.5 |
| 20260906060055 | 83 | 281 | 3.5 | 9.6 | 0.00 | 0.00 | 0.00 | 82 | 1011.6 |
| 20260906055532 | 83 | 290 | 4.3 | 9.6 | 0.00 | 0.00 | 0.00 | 82 | 1011.7 |
| 20260906055035 | 83 | 271 | 6.1 | 9.6 | 0.00 | 0.00 | 0.00 | 82 | 1011.7 |
| 20260906054549 | 83 | 273 | 7.8 | 9.6 | 0.00 | 0.00 | 0.00 | 82 | 1011.6 |
| 20260906054037 | 83 | 256 | 7.0 | 9.6 | 0.00 | 0.00 | 0.00 | 83 | 1011.8 |
| 20260906053537 | 83 | 272 | 5.2 | 9.6 | 0.00 | 0.00 | 0.00 | 83 | 1011.9 |
| 20260906053045 | 82 | 279 | 4.3 | 8.7 | 0.00 | 0.00 | 0.00 | 83 | 1012.0 |
| 20260906052540 | 82 | 292 | 3.5 | 6.1 | 0.00 | 0.00 | 0.00 | 83 | 1012.2 |
| 20260906052037 | 82 | 292 | 3.5 | 6.1 | 0.00 | 0.00 | 0.00 | 83 | 1012.2 |
| 20260906051603 | 82 | 296 | 1.7 | 7.0 | 0.00 | 0.00 | 0.00 | 83 | 1012.2 |
| 20260906051037 | 82 | 281 | 2.6 | 7.0 | 0.00 | 0.00 | 0.00 | 83 | 1012.3 |
| 20260906050536 | 82 | 295 | 3.5 | 7.8 | 0.00 | 0.00 | 0.00 | 83 | 1012.3 |
| 20260906050104 | 82 | 290 | 3.5 | 8.7 | 0.00 | 0.00 | 0.00 | 83 | 1012.2 |
| 20260906045536 | 82 | 274 | 4.3 | 8.7 | 0.00 | 0.00 | 0.00 | 83 | 1012.1 |
| 20260906045037 | 82 | 284 | 4.3 | 7.0 | 0.00 | 0.00 | 0.00 | 83 | 1012.2 |
| 20260906044552 | 82 | 290 | 1.7 | 5.2 | 0.00 | 0.00 | 0.00 | 83 | 1012.3 |
| 20260906044040 | 82 | 296 | 1.7 | 6.1 | 0.00 | 0.00 | 0.00 | 83 | 1012.3 |
| 20260906043539 | 82 | 303 | 2.6 | 7.0 | 0.00 | 0.00 | 0.00 | 83 | 1012.3 |
| 20260906043053 | 82 | 313 | 2.6 | 7.0 | 0.00 | 0.00 | 0.00 | 83 | 1012.3 |
| 20260906042536 | 82 | 288 | 2.6 | 7.0 | 0.00 | 0.00 | 0.00 | 83 | 1012.4 |
| 20260906042036 | 82 | 295 | 2.6 | 7.0 | 0.00 | 0.00 | 0.00 | 83 | 1012.5 |
| 20260906041602 | 82 | 305 | 2.6 | 7.8 | 0.00 | 0.00 | 0.00 | 82 | 1012.6 |
| 20260906041036 | 82 | 333 | 2.6 | 7.8 | 0.00 | 0.00 | 0.00 | 82 | 1012.6 |
| 20260906040536 | 82 | 326 | 1.7 | 7.0 | 0.00 | 0.00 | 0.00 | 82 | 1012.7 |
| 20260906040053 | 82 | 325 | 2.6 | 7.8 | 0.00 | 0.00 | 0.00 | 82 | 1012.7 |
| 20260906035539 | 82 | 334 | 2.6 | 7.8 | 0.00 | 0.00 | 0.00 | 81 | 1012.7 |
| 20260906035037 | 83 | 5 | 2.6 | 9.6 | 0.00 | 0.00 | 0.00 | 81 | 1012.5 |
| 20260906034606 | 83 | 297 | 2.6 | 9.6 | 0.00 | 0.00 | 0.00 | 81 | 1012.7 |
| 20260906034037 | 83 | 352 | 3.5 | 9.6 | 0.00 | 0.00 | 0.00 | 81 | 1012.7 |
| 20260906033536 | 83 | 304 | 2.6 | 7.8 | 0.00 | 0.00 | 0.00 | 80 | 1012.7 |
| 20260906033046 | 83 | 326 | 2.6 | 8.7 | 0.00 | 0.00 | 0.00 | 80 | 1012.6 |
| 20260906032537 | 83 | 321 | 3.5 | 9.6 | 0.00 | 0.00 | 0.00 | 80 | 1012.7 |
| 20260906032037 | 84 | 335 | 3.5 | 9.6 | 0.00 | 0.00 | 0.00 | 80 | 1012.6 |
| 20260906031553 | 84 | 9 | 2.6 | 10.4 | 0.00 | 0.00 | 0.00 | 80 | 1012.7 |
| 20260906031037 | 84 | 310 | 3.5 | 10.4 | 0.00 | 0.00 | 0.00 | 80 | 1012.7 |
| 20260906030537 | 84 | 302 | 6.1 | 10.4 | 0.00 | 0.00 | 0.00 | 80 | 1012.6 |
| 20260906030048 | 84 | 295 | 6.1 | 9.6 | 0.00 | 0.00 | 0.00 | 80 | 1012.5 |
| 20260906025536 | 85 | 260 | 6.1 | 12.2 | 0.00 | 0.00 | 0.00 | 80 | 1012.5 |
| 20260906025038 | 85 | 281 | 5.2 | 12.2 | 0.00 | 0.00 | 0.00 | 80 | 1012.5 |
| 20260906024557 | 85 | 268 | 7.0 | 12.2 | 0.00 | 0.00 | 0.00 | 79 | 1012.4 |
| 20260906024036 | 85 | 267 | 8.7 | 13.9 | 0.00 | 0.00 | 0.00 | 80 | 1012.3 |
| 20260906023535 | 85 | 265 | 10.4 | 13.9 | 0.00 | 0.00 | 0.00 | 80 | 1012.3 |
| 20260906023056 | 85 | 265 | 9.6 | 13.0 | 0.00 | 0.00 | 0.00 | 80 | 1012.4 |
| 20260906022533 | 85 | 269 | 9.6 | 13.0 | 0.00 | 0.00 | 0.00 | 80 | 1012.4 |
| 20260906022035 | 85 | 261 | 10.4 | 14.8 | 0.00 | 0.00 | 0.00 | 80 | 1012.4 |
| 20260906021601 | 85 | 265 | 11.3 | 14.8 | 0.00 | 0.00 | 0.00 | 80 | 1012.3 |
| 20260906021036 | 85 | 255 | 11.3 | 14.8 | 0.00 | 0.00 | 0.00 | 80 | 1012.2 |
| 20260906020534 | 85 | 248 | 12.2 | 14.8 | 0.00 | 0.00 | 0.00 | 80 | 1012.0 |
| 20260906020055 | 85 | 257 | 11.3 | 14.8 | 0.00 | 0.00 | 0.00 | 81 | 1012.1 |
| 20260906015534 | 85 | 252 | 10.4 | 13.9 | 0.00 | 0.00 | 0.00 | 80 | 1012.1 |
| 20260906015034 | 85 | 258 | 10.4 | 13.9 | 0.00 | 0.00 | 0.00 | 79 | 1012.1 |
| 20260906014552 | 85 | 258 | 11.3 | 13.9 | 0.00 | 0.00 | 0.00 | 79 | 1012.0 |
| 20260906014035 | 85 | 258 | 11.3 | 13.9 | 0.00 | 0.00 | 0.00 | 79 | 1011.9 |
| 20260906013534 | 85 | 250 | 11.3 | 13.9 | 0.00 | 0.00 | 0.00 | 79 | 1011.8 |
| 20260906013107 | 85 | 253 | 11.3 | 13.9 | 0.00 | 0.00 | 0.00 | 79 | 1011.7 |
| 20260906012533 | 85 | 260 | 11.3 | 13.0 | 0.00 | 0.00 | 0.00 | 80 | 1011.8 |
| 20260906012034 | 85 | 253 | 10.4 | 13.0 | 0.00 | 0.00 | 0.00 | 80 | 1011.6 |
| 20260906011549 | 85 | 271 | 10.4 | 13.0 | 0.00 | 0.00 | 0.00 | 80 | 1011.6 |
| 20260906011035 | 85 | 275 | 10.4 | 13.0 | 0.00 | 0.00 | 0.00 | 81 | 1011.7 |
| 20260906010535 | 85 | 275 | 10.4 | 13.0 | 0.00 | 0.00 | 0.00 | 80 | 1011.6 |
| 20260906010047 | 85 | 265 | 10.4 | 13.9 | 0.00 | 0.00 | 0.00 | 81 | 1011.7 |
| 20260906005534 | 85 | 268 | 11.3 | 13.9 | 0.00 | 0.00 | 0.00 | 81 | 1011.7 |
| 20260906005034 | 85 | 255 | 11.3 | 13.9 | 0.00 | 0.00 | 0.00 | 81 | 1011.6 |
| 20260906004555 | 85 | 251 | 11.3 | 14.8 | 0.00 | 0.00 | 0.00 | 81 | 1011.6 |
| 20260906004033 | 85 | 253 | 11.3 | 16.5 | 0.00 | 0.00 | 0.00 | 81 | 1011.5 |
| 20260906003534 | 85 | 250 | 13.0 | 16.5 | 0.00 | 0.00 | 0.00 | 81 | 1011.4 |
| 20260906003050 | 85 | 238 | 12.2 | 16.5 | 0.00 | 0.00 | 0.00 | 80 | 1011.2 |
| 20260906002533 | 85 | 250 | 11.3 | 13.9 | 0.00 | 0.00 | 0.00 | 79 | 1011.4 |
| 20260906002031 | 85 | 239 | 11.3 | 13.9 | 0.00 | 0.00 | 0.00 | 79 | 1011.4 |
| 20260906001547 | 85 | 240 | 11.3 | 13.9 | 0.00 | 0.00 | 0.00 | 79 | 1011.4 |
| 20260906001034 | 85 | 242 | 10.4 | 13.9 | 0.00 | 0.00 | 0.00 | 78 | 1011.5 |
| 20260906000533 | 85 | 247 | 12.2 | 14.8 | 0.00 | 0.00 | 0.00 | 79 | 1011.5 |
| 20260906000107 | 85 | 242 | 11.3 | 14.8 | 0.00 | 0.00 | 0.00 | 80 | 1011.3 |
| 20260905235534 | 85 | 249 | 12.2 | 14.8 | 0.00 | 0.00 | 0.00 | 78 | 1011.5 |
| 20260905235034 | 85 | 241 | 12.2 | 14.8 | 0.00 | 0.00 | 0.00 | 78 | 1011.4 |
| 20260905234610 | 85 | 232 | 12.2 | 13.9 | 0.00 | 0.00 | 0.00 | 78 | 1011.4 |
| 20260905234034 | 85 | 229 | 11.3 | 13.9 | 0.00 | 0.00 | 0.00 | 78 | 1011.5 |
| 20260905233534 | 85 | 233 | 11.3 | 13.0 | 0.00 | 0.00 | 0.00 | 78 | 1011.4 |
| 20260905233050 | 85 | 237 | 10.4 | 13.0 | 0.00 | 0.00 | 0.00 | 78 | 1011.5 |
| 20260905232535 | 85 | 238 | 9.6 | 12.2 | 0.00 | 0.00 | 0.00 | 78 | 1011.6 |
| 20260905232035 | 85 | 230 | 9.6 | 12.2 | 0.00 | 0.00 | 0.00 | 78 | 1011.7 |
| 20260905231604 | 85 | 230 | 9.6 | 12.2 | 0.00 | 0.00 | 0.00 | 79 | 1011.6 |
| 20260905231034 | 85 | 236 | 9.6 | 12.2 | 0.00 | 0.00 | 0.00 | 80 | 1011.7 |
| 20260905230534 | 85 | 228 | 8.7 | 10.4 | 0.00 | 0.00 | 0.00 | 81 | 1011.9 |
| 20260905230104 | 85 | 234 | 8.7 | 10.4 | 0.00 | 0.00 | 0.00 | 80 | 1011.9 |
| 20260905225534 | 85 | 241 | 7.8 | 11.3 | 0.00 | 0.00 | 0.00 | 81 | 1011.9 |
| 20260905225034 | 85 | 237 | 8.7 | 12.2 | 0.00 | 0.00 | 0.00 | 80 | 1011.9 |
| 20260905224612 | 85 | 229 | 8.7 | 12.2 | 0.00 | 0.00 | 0.00 | 80 | 1011.9 |
| 20260905224034 | 85 | 224 | 8.7 | 11.3 | 0.00 | 0.00 | 0.00 | 80 | 1011.9 |
| 20260905223534 | 85 | 220 | 7.8 | 11.3 | 0.00 | 0.00 | 0.00 | 79 | 1012.0 |
| 20260905223057 | 85 | 238 | 7.8 | 11.3 | 0.00 | 0.00 | 0.00 | 79 | 1012.0 |
| 20260905222535 | 85 | 227 | 8.7 | 11.3 | 0.00 | 0.00 | 0.00 | 79 | 1012.0 |
| 20260905222034 | 85 | 239 | 8.7 | 10.4 | 0.00 | 0.00 | 0.00 | 78 | 1012.0 |
| 20260905221556 | 85 | 245 | 7.8 | 10.4 | 0.00 | 0.00 | 0.00 | 78 | 1012.1 |
| 20260905221036 | 85 | 240 | 7.0 | 11.3 | 0.00 | 0.00 | 0.00 | 79 | 1012.1 |
| 20260905220537 | 85 | 244 | 8.7 | 12.2 | 0.00 | 0.00 | 0.00 | 79 | 1012.0 |
| 20260905215536 | 85 | 235 | 9.6 | 12.2 | 0.00 | 0.00 | 0.00 | 80 | 1011.8 |
| 20260905215038 | 84 | 236 | 9.6 | 12.2 | 0.00 | 0.00 | 0.00 | 79 | 1011.8 |
| 20260905214546 | 84 | 230 | 9.6 | 12.2 | 0.00 | 0.00 | 0.00 | 80 | 1011.9 |
| 20260905214036 | 84 | 244 | 9.6 | 12.2 | 0.00 | 0.00 | 0.00 | 80 | 1011.9 |
| 20260905213533 | 84 | 232 | 9.6 | 14.8 | 0.00 | 0.00 | 0.00 | 82 | 1011.9 |
| 20260905213057 | 84 | 237 | 11.3 | 14.8 | 0.00 | 0.00 | 0.00 | 81 | 1011.9 |
| 20260905212535 | 84 | 246 | 11.3 | 14.8 | 0.00 | 0.00 | 0.00 | 80 | 1011.8 |
| 20260905212033 | 84 | 239 | 10.4 | 14.8 | 0.00 | 0.00 | 0.00 | 80 | 1011.9 |
| 20260905211554 | 84 | 243 | 11.3 | 14.8 | 0.00 | 0.00 | 0.00 | 81 | 1012.0 |
| 20260905211036 | 84 | 224 | 11.3 | 14.8 | 0.00 | 0.00 | 0.00 | 81 | 1012.0 |
| 20260905210536 | 84 | 232 | 12.2 | 14.8 | 0.00 | 0.00 | 0.00 | 82 | 1012.0 |
| 20260905205536 | 84 | 225 | 12.2 | 15.6 | 0.00 | 0.00 | 0.00 | 82 | 1012.1 |
| 20260905205038 | 84 | 226 | 13.0 | 15.6 | 0.00 | 0.00 | 0.00 | 82 | 1012.2 |
| 20260905204557 | 84 | 227 | 12.2 | 15.6 | 0.00 | 0.00 | 0.00 | 80 | 1012.1 |
| 20260905204035 | 85 | 230 | 9.6 | 12.2 | 0.00 | 0.00 | 0.00 | 79 | 1012.0 |
| 20260905203532 | 85 | 230 | 9.6 | 12.2 | 0.00 | 0.00 | 0.00 | 78 | 1011.9 |
| 20260905203108 | 85 | 251 | 8.7 | 11.3 | 0.00 | 0.00 | 0.00 | 78 | 1011.9 |
| 20260905202533 | 85 | 240 | 7.8 | 11.3 | 0.00 | 0.00 | 0.00 | 79 | 1012.1 |
| 20260905202036 | 85 | 240 | 8.7 | 11.3 | 0.00 | 0.00 | 0.00 | 79 | 1012.2 |
| 20260905201554 | 85 | 240 | 8.7 | 11.3 | 0.00 | 0.00 | 0.00 | 79 | 1012.3 |
| 20260905201036 | 85 | 246 | 8.7 | 11.3 | 0.00 | 0.00 | 0.00 | 79 | 1012.4 |
| 20260905200536 | 85 | 235 | 9.6 | 11.3 | 0.00 | 0.00 | 0.00 | 79 | 1012.4 |
| 20260905200049 | 85 | 241 | 8.7 | 10.4 | 0.00 | 0.00 | 0.00 | 78 | 1012.4 |
| 20260905195536 | 85 | 249 | 7.8 | 10.4 | 0.00 | 0.15 | 0.00 | 77 | 1012.5 |
| 20260905195034 | 85 | 240 | 7.0 | 9.6 | 0.00 | 0.15 | 0.00 | 78 | 1012.5 |
| 20260905194557 | 85 | 241 | 7.8 | 10.4 | 0.00 | 0.15 | 0.00 | 79 | 1012.5 |
| 20260905194033 | 85 | 227 | 7.8 | 11.3 | 0.00 | 0.15 | 0.00 | 78 | 1012.6 |
| 20260905193535 | 85 | 246 | 8.7 | 12.2 | 0.00 | 0.15 | 0.00 | 79 | 1012.7 |
| 20260905193054 | 85 | 253 | 9.6 | 12.2 | 0.00 | 0.15 | 0.00 | 78 | 1012.8 |
| 20260905192532 | 85 | 235 | 10.4 | 13.0 | 0.00 | 0.15 | 0.00 | 78 | 1012.9 |
| 20260905192035 | 85 | 249 | 10.4 | 13.0 | 0.00 | 0.15 | 0.00 | 77 | 1013.1 |
| 20260905191552 | 85 | 232 | 10.4 | 12.2 | 0.00 | 0.15 | 0.00 | 79 | 1013.1 |
| 20260905191035 | 85 | 236 | 9.6 | 13.0 | 0.00 | 0.15 | 0.00 | 77 | 1013.1 |
| 20260905190533 | 85 | 225 | 10.4 | 13.9 | 0.00 | 0.15 | 0.00 | 78 | 1013.1 |
| 20260905185533 | 85 | 229 | 11.3 | 13.0 | 0.00 | 0.15 | 0.00 | 77 | 1013.1 |
| 20260905185035 | 85 | 229 | 10.4 | 12.2 | 0.00 | 0.15 | 0.00 | 77 | 1013.1 |
| 20260905184550 | 85 | 227 | 9.6 | 12.2 | 0.00 | 0.15 | 0.00 | 77 | 1013.1 |
| 20260905184035 | 85 | 227 | 9.6 | 12.2 | 0.00 | 0.15 | 0.00 | 77 | 1013.1 |
| 20260905183533 | 85 | 227 | 8.7 | 10.4 | 0.00 | 0.15 | 0.00 | 76 | 1013.2 |
| 20260905183057 | 85 | 227 | 7.8 | 10.4 | 0.00 | 0.15 | 0.00 | 75 | 1013.3 |
| 20260905182536 | 85 | 240 | 7.8 | 11.3 | 0.00 | 0.15 | 0.00 | 76 | 1013.4 |
| 20260905182036 | 85 | 238 | 8.7 | 11.3 | 0.00 | 0.15 | 0.00 | 75 | 1013.5 |
| 20260905181551 | 85 | 246 | 8.7 | 10.4 | 0.00 | 0.15 | 0.00 | 75 | 1013.6 |
| 20260905181036 | 85 | 249 | 7.0 | 10.4 | 0.00 | 0.15 | 0.00 | 75 | 1013.7 |
| 20260905180536 | 85 | 258 | 7.0 | 10.4 | 0.00 | 0.15 | 0.00 | 74 | 1013.6 |
| 20260905180049 | 86 | 244 | 7.0 | 8.7 | 0.00 | 0.15 | 0.00 | 74 | 1013.7 |
| 20260905175537 | 85 | 253 | 7.0 | 9.6 | 0.00 | 0.15 | 0.00 | 74 | 1013.7 |
| 20260905175035 | 86 | 248 | 7.0 | 9.6 | 0.00 | 0.15 | 0.00 | 74 | 1013.8 |
| 20260905174601 | 86 | 253 | 7.0 | 8.7 | 0.00 | 0.15 | 0.00 | 75 | 1013.8 |
| 20260905174034 | 86 | 248 | 7.0 | 8.7 | 0.00 | 0.15 | 0.00 | 74 | 1013.9 |
| 20260905173535 | 86 | 265 | 6.1 | 7.8 | 0.00 | 0.15 | 0.00 | 73 | 1014.1 |
| 20260905173055 | 86 | 257 | 4.3 | 7.0 | 0.00 | 0.15 | 0.00 | 74 | 1014.1 |
| 20260905172536 | 86 | 252 | 3.5 | 7.0 | 0.00 | 0.15 | 0.00 | 73 | 1014.3 |
| 20260905172034 | 86 | 252 | 3.5 | 7.0 | 0.00 | 0.15 | 0.00 | 72 | 1014.3 |
| 20260905171615 | 85 | 256 | 5.2 | 7.0 | 0.00 | 0.15 | 0.00 | 73 | 1014.2 |
| 20260905171037 | 85 | 259 | 5.2 | 7.0 | 0.00 | 0.15 | 0.00 | 76 | 1014.1 |
| 20260905170536 | 85 | 271 | 4.3 | 7.8 | 0.00 | 0.15 | 0.00 | 75 | 1014.3 |
| 20260905170048 | 85 | 271 | 3.5 | 8.7 | 0.00 | 0.15 | 0.00 | 76 | 1014.4 |
| 20260905165535 | 85 | 272 | 5.2 | 8.7 | 0.00 | 0.15 | 0.00 | 78 | 1014.5 |
| 20260905165035 | 84 | 275 | 5.2 | 8.7 | 0.00 | 0.15 | 0.00 | 78 | 1014.4 |
| 20260905164551 | 84 | 267 | 6.1 | 9.6 | 0.00 | 0.15 | 0.00 | 80 | 1014.5 |
| 20260905164037 | 84 | 257 | 7.0 | 9.6 | 0.00 | 0.15 | 0.00 | 80 | 1014.4 |
| 20260905163534 | 84 | 273 | 7.8 | 9.6 | 0.00 | 0.15 | 0.00 | 80 | 1014.5 |
| 20260905163052 | 85 | 288 | 5.2 | 8.7 | 0.00 | 0.15 | 0.00 | 79 | 1014.6 |
| 20260905162538 | 84 | 288 | 6.1 | 8.7 | 0.00 | 0.15 | 0.00 | 82 | 1014.6 |
| 20260905162037 | 84 | 250 | 3.5 | 7.0 | 0.00 | 0.15 | 0.00 | 79 | 1014.6 |
| 20260905161553 | 84 | 238 | 4.3 | 7.0 | 0.00 | 0.15 | 0.00 | 78 | 1014.6 |
| 20260905161036 | 85 | 242 | 3.5 | 7.0 | 0.00 | 0.15 | 0.00 | 77 | 1014.7 |
| 20260905160533 | 85 | 235 | 3.5 | 6.1 | 0.00 | 0.15 | 0.00 | 77 | 1014.7 |
| 20260905160058 | 85 | 227 | 4.3 | 6.1 | 0.00 | 0.15 | 0.00 | 77 | 1014.7 |
| 20260905155534 | 85 | 232 | 3.5 | 6.1 | 0.00 | 0.15 | 0.00 | 77 | 1014.7 |
| 20260905155035 | 86 | 244 | 3.5 | 4.3 | 0.00 | 0.15 | 0.00 | 76 | 1014.7 |
| 20260905154603 | 85 | 248 | 2.6 | 4.3 | 0.00 | 0.15 | 0.00 | 76 | 1014.6 |
| 20260905154036 | 86 | 249 | 1.7 | 3.5 | 0.00 | 0.15 | 0.00 | 76 | 1014.6 |
| 20260905153535 | 86 | 263 | 1.7 | 3.5 | 0.00 | 0.15 | 0.00 | 75 | 1014.7 |
| 20260905153046 | 86 | 5 | 0.9 | 3.5 | 0.00 | 0.15 | 0.00 | 76 | 1014.7 |
| 20260905152537 | 85 | 0 | 0.9 | 3.5 | 0.00 | 0.15 | 0.00 | 76 | 1014.9 |
| 20260905152035 | 86 | 335 | 1.7 | 3.5 | 0.00 | 0.15 | 0.00 | 76 | 1015.0 |
| 20260905151552 | 85 | 16 | 0.9 | 3.5 | 0.00 | 0.15 | 0.00 | 75 | 1014.9 |
| 20260905151035 | 85 | 16 | 0.9 | 3.5 | 0.00 | 0.15 | 0.00 | 77 | 1015.0 |
| 20260905150534 | 85 | 17 | 0.9 | 4.3 | 0.00 | 0.15 | 0.00 | 78 | 1015.1 |
| 20260905150049 | 85 | 41 | 1.7 | 5.2 | 0.00 | 0.15 | 0.00 | 79 | 1015.0 |
| 20260905145538 | 85 | 31 | 1.7 | 8.7 | 0.00 | 0.15 | 0.00 | 78 | 1014.9 |
| 20260905145034 | 85 | 39 | 2.6 | 8.7 | 0.00 | 0.15 | 0.00 | 80 | 1014.9 |
| 20260905144546 | 85 | 42 | 3.5 | 8.7 | 0.00 | 0.15 | 0.00 | 80 | 1015.0 |
| 20260905144033 | 84 | 22 | 2.6 | 7.8 | 0.00 | 0.15 | 0.00 | 81 | 1015.0 |
| 20260905143536 | 84 | 5 | 3.5 | 7.8 | 0.00 | 0.15 | 0.00 | 81 | 1014.9 |
| 20260905143046 | 84 | 5 | 3.5 | 7.0 | 0.00 | 0.15 | 0.00 | 82 | 1015.1 |
| 20260905142535 | 84 | 31 | 1.7 | 7.0 | 0.00 | 0.15 | 0.00 | 82 | 1015.1 |
| 20260905142036 | 84 | 5 | 2.6 | 7.0 | 0.00 | 0.15 | 0.00 | 83 | 1014.9 |
| 20260905141551 | 84 | 350 | 2.6 | 7.8 | 0.00 | 0.15 | 0.00 | 83 | 1014.8 |
| 20260905141035 | 83 | 11 | 2.6 | 7.8 | 0.00 | 0.15 | 0.00 | 84 | 1014.9 |